View from above orbital plane
|
View from above satellite
|
Ground track
|
The orbit data is extracted from the following two-line orbital elements,
1 48274U 21035A 22149.01532962 .00023846 00000-0 28634-3 0 9991
2 48274 41.4724 335.4743 0001223 100.0322 38.6936 15.60321475 61774
Epoch (UTC): | 29 May 2022 00:22:04 |
Eccentricity: | 0.0001223 |
inclination: | 41.4724° |
perigee height: | 386 km |
apogee height: | 387 km |
right ascension of ascending node: | 335.4743° |
argument of perigee: | 100.0322° |
revolutions per day: | 15.60321475 |
mean anomaly at epoch: | 38.6936° |
orbit number at epoch: | 6177 |
The dashed part of the orbit path shows where the satellite is in the earth's shadow,
|
|